User: anonymous   Login
Location: ?
(35.4064°N, 139.3593°E)
Time: 16:08:28
(UTC+00:00)
Language:

ACS3 Solar Sail - Orbit

View from above orbital plane
View from above orbital plane
View from above satellite
View from above satellite

Ground track
Ground track

The orbit data is extracted from the following two-line orbital elements,

1 59588U 24077B   24201.43624833  .00000088  00000-0  13797-3 0  9993
2 59588  97.4047 262.1244 0020249  10.5169 349.6402 13.67692287 11818
Epoch (UTC): 19 July 2024 10:28:11
Eccentricity: 0.0020249
inclination: 97.4047°
perigee height: 993 km
apogee height: 1023 km
right ascension of ascending node: 262.1244°
argument of perigee: 10.5169°
revolutions per day: 13.67692287
mean anomaly at epoch: 349.6402°
orbit number at epoch: 1181

The dashed part of the orbit path shows where the satellite is in the earth's shadow,  

DLR